Weather in Demyanovo

Russia / Kirov Oblast     60°21′22″N   47°05′01″E
temp.,
°C
wind,
m/s
gust,
m/s
humid.,
%
clouds,
%
prec.,
mm/h
press.,
hPa
HPBL,
m
15 april, thu
thu1500:00+11sw4158699 0.0 1017502
03:00+8w2795100 0.0 1018162
06:00+6n4991100 0.1 1020447
09:00+4nne4891100 0.6 1023583
12:00+5nne2682100 0.4 1025569
15:00+9n565316 0.4 10251467
18:00+6n38605 0.0 1027398
21:00+2n28780 0.0 1029161
16 april, fri
fri1600:000nne27835 0.0 1031160
03:00−1nne23835 0.0 103272
06:000ne13775 0.0 1033113
09:00+5ne12530 0.0 1033700
12:00+8n12420 0.0 10321107
15:00+9nnw23394 0.0 10311322
18:00+7nnw11562 0.0 103114
21:00+3nne11705 0.0 103210
17 april, sat
sat1700:00+2nnw11753 0.0 103210
03:000nnw22865 0.0 103322
06:00+1nnw24875 0.0 1033130
09:00+6n34665 0.0 1033811
12:00+9nnw34445 0.0 10321248
15:00+10nnw354040 0.0 10301441
18:00+8nw365559 0.0 1029198
21:00+4nw287443 0.0 1029157
18 april, sun
sun1800:00+3nw311780 0.0 1029316
03:00+1nw311862 0.0 1029333
06:00+2n398675 0.0 1030700
09:00+3ne465524 0.0 10311090
12:00+5ne46355 0.0 10321535
15:00+6ne45345 0.0 10331749
18:00+4ene46415 0.0 1034845
21:000ene29600 0.0 1035211
19 april, mon
mon1900:00−2ene29655 0.0 1037207
03:00−2e25685 0.0 1038133
06:00−1ese24615 0.0 1039164
09:00+4e23360 0.0 10391295
12:00+6e22300 0.0 10381557
15:00+7e22300 0.0 10371619
18:00+5e11425 0.0 103615
21:00+1ese11535 0.0 103710